This is the latest recevied weather packets stored in our database for station/object DG2HSI-10. If no packets are shown the sender has not sent any weather packets the latest 10 day(s).
| Time | Temp. | Humidity | Pressure | Rain* | Wind** | Luminosity | Snow |
|---|---|---|---|---|---|---|---|
| 1777694151 | 10° C | 67% | 1023.7 hPa | - | - | - | - |
| 1777692951 | 10° C | 65% | 1023.7 hPa | - | - | - | - |
| 1777691751 | 10° C | 66% | 1024 hPa | - | - | - | - |
| 1777690550 | 10° C | 64% | 1024 hPa | - | - | - | - |
| 1777689350 | 10° C | 64% | 1024.2 hPa | - | - | - | - |
| 1777688150 | 10° C | 64% | 1024.3 hPa | - | - | - | - |
| 1777686950 | 10.56° C | 63% | 1024.3 hPa | - | - | - | - |
| 1777685750 | 10.56° C | 62% | 1024.5 hPa | - | - | - | - |
| 1777684549 | 10.56° C | 61% | 1024.6 hPa | - | - | - | - |
| 1777683349 | 11.11° C | 61% | 1024.9 hPa | - | - | - | - |
| 1777682149 | 11.67° C | 59% | 1025 hPa | - | - | - | - |
| 1777680949 | 11.67° C | 58% | 1025.1 hPa | - | - | - | - |
| 1777679749 | 11.67° C | 58% | 1025.2 hPa | - | - | - | - |
| 1777678549 | 11.67° C | 57% | 1025.3 hPa | - | - | - | - |
| 1777677349 | 12.22° C | 58% | 1025.5 hPa | - | - | - | - |
| 1777676148 | 12.22° C | 58% | 1025.5 hPa | - | - | - | - |
| 1777674948 | 12.78° C | 59% | 1025.7 hPa | - | - | - | - |
| 1777673748 | 12.78° C | 57% | 1025.7 hPa | - | - | - | - |
| 1777672548 | 13.33° C | 56% | 1025.7 hPa | - | - | - | - |
| 1777671348 | 13.89° C | 54% | 1025.8 hPa | - | - | - | - |
| 1777670148 | 14.44° C | 53% | 1025.9 hPa | - | - | - | - |
| 1777668948 | 15° C | 50% | 1025.8 hPa | - | - | - | - |
| 1777667747 | 16.11° C | 48% | 1025.9 hPa | - | - | - | - |
| 1777666547 | 16.67° C | 45% | 1026 hPa | - | - | - | - |
| 1777665347 | 17.22° C | 43% | 1026.1 hPa | - | - | - | - |
* Rain since midnight (hover to see other rain measurements)
** Current wind speed in m/s (hover to see current wind gust speed)